AirNav   ATP
 
 805 users online  

LA56 Naylor Airport
Shreveport, Louisiana, USA

GOING TO SHREVEPORT?


FAA INFORMATION EFFECTIVE 14 SEPTEMBER 2017

Location

FAA Identifier: LA56
Lat/Long: 32-20-30.5620N / 093-39-30.6390W
32-20.509367N / 093-39.510650W
32.3418228 / -93.6585108
(estimated)
Elevation: 155 ft. / 47 m (estimated)
Variation: 05E (1985)
From city: 12 miles SE of SHREVEPORT, LA
Time zone: UTC -5 (UTC -6 during Standard Time)
Zip code: 71115

Airport Operations

Airport use: Private use. Permission required prior to landing
Activation date: 02/1950
Control tower: no
ARTCC: FORT WORTH CENTER
FSS: DE RIDDER FLIGHT SERVICE STATION
Attendance: MON-FRI 0800-1700
IRREGULAR
Wind indicator: yes
Segmented circle: no

Airport Communications

WX ASOS at SHV (11 nm NW): PHONE 318-636-5767
WX ASOS at DTN (13 nm N): 118.525 (318-425-7967)
WX AWOS-3PT at 3F3 (17 nm S): 119.125 (318-872-3537)

Nearby radio navigation aids

VOR radial/distance  VOR name  Freq  Var
EMGr215/4.8ELM GROVE VORTAC111.2007E
EICr156/26.9BELCHER VORTAC117.4007E

 
NDB name  Hdg/Dist  Freq  Var  ID
MANSFIELD014/17.541404EMSD -- ... -..
CARTHAGE069/33.833204ERPF .-. .--. ..-.
AMASON036/39.634104ECZJ -.-. --.. .---

Airport Services

Airframe service: NONE
Powerplant service: NONE

Runway Information

Runway 18/36

Dimensions: 2000 x 300 ft. / 610 x 91 m
Surface: turf
RUNWAY 18  RUNWAY 36
Traffic pattern: leftleft

Airport Ownership and Management from official FAA records

Ownership: Privately-owned
Owner: TOMMY ELLETT
2910 HWY 568
SHREVEPORT, LA 71334
Phone 318-757-3141
Manager: DAVID FARRAR
2121 ROBSON ROAD
SHREVEPORT, LA 71115
Phone (318) 797-3260

Airport Operational Statistics

Aircraft based on the field: 1
Single engine airplanes: 1
    

Instrument Procedures

There are no published instrument procedures at LA56.

Some nearby airports with instrument procedures:

KBAD - Barksdale Air Force Base (10 nm N)
KSHV - Shreveport Regional Airport (11 nm NW)
KDTN - Shreveport Downtown Airport (13 nm N)
3F3 - C E 'Rusty' Williams Airport (17 nm S)
KMNE - Minden Airport (26 nm NE)
 
Loc | Ops | Rwys | IFR | FBO | Links
Com | Nav | Svcs | Stats | Notes


 
Area around LA56 (Naylor Airport)
 
Road maps at: MapQuest Bing Google
 
Aerial photo
WARNING: Photo may not be current or correct
Aerial photo of LA56 (Naylor Airport)
Photo by Carl Hennigan
Photo taken 18-Feb-2008

Do you have a better or more recent aerial photo of Naylor Airport that you would like to share? If so, please send us your photo.

 
Sectional chart

 
Airport distance calculator
Flying to Naylor Airport? Find the distance to fly.

From to LA56

Sunrise and sunset
Times for 23-Sep-2017
 Local
(UTC-5)
 Zulu
(UTC)
Morning civil twilight06:4011:40
Sunrise07:0412:04
Sunset19:1000:10
Evening civil twilight19:3400:34

Current date and time
Zulu (UTC)  23-Sep-2017 22:37:37
Local (UTC-5)  23-Sep-2017 17:37:37
 
METAR
KBAD 
10nm N 
232158Z AUTO 10009KT 10SM CLR 33/20 A2988 RMK AO2 SLP119 T03340199
KSHV 
11nm NW 
232156Z 15008KT 10SM FEW055 33/20 A2988 RMK SLP113 T03330200
KDTN 
13nm N 
232153Z 10008KT 10SM CLR 34/19 A2988 RMK AO2 SLP115 T03390189
TAF
KBAD 
10nm N 
231800Z 2318/2424 10006KT 9999 SKC QNH2985INS BECMG 2415/2416 09006KT 9999 FEW150 QNH2985INS TX34/2321Z TN22/2412Z
KSHV 
11nm NW 
231744Z 2318/2418 VRB05KT P6SM BKN045 FM240000 11004KT P6SM SCT050 FM240300 VRB03KT P6SM VCSH BKN050 FM240500 12005KT P6SM FEW050 FM241000 12003KT 5SM BR SKC FM241300 13004KT P6SM SCT040 FM241700 13006KT P6SM BKN045
NOTAMs
Click for the latest NOTAMs
NOTAMs are issued by the DoD/FAA and will open in a separate window not controlled by AirNav.

 

 
 

Would you like to see your business listed on this page?

 If your business provides an interesting product or service to pilots, flight crews, aircraft, or users of the Naylor Airport, you should consider listing it here.  To start the listing process, click on the button below
 
Add a business
 

Other Pages about Naylor Airport

Update a link
 
Copyright © AirNav, LLC. All rights reserved. Privacy Policy  Contact